MIDAS 4 DEB, 2009

Orbit data source: Space-Track

MIDAS 4 DEB, 2009 is space debris in LEO originally from a launch on Sat, 21 Oct 1961 UTC launched from the Air Force Western Test Range (AFWTR). Debris objects in space refer to the collection of defunct objects orbiting the Earth. Examples of debris include non-operational satellites, rocket bodies, and fragments generated from explosions, collisions, or faulty payload assembly.

Loading next visibility...
MIDAS 4 DEB details
Identifier
2009, 1961-028E
Orbit
LEO
Last TLE update13 hours ago
Origin
Flag of USUSAF SSD (US)
ManufacturerUnknown
MissionSpacecraft
Bus & MotorUnknown
Mass~10 kg wet, ~10 kg dry
Launch date (UTC)
1961-10-21 (63 years ago)
Launch vehicleUnknown
Launch site
Air Force Western Test Range (AFWTR)
Object type
Payload
Rocket body
Debris
Shape & HBRUnknown
Radar Cross SectionMedium (>0.1 m² and <1 m²)

Expand to show TLE details & history

TLE from 13 hours ago
0 MIDAS 4 DEB
1  2009U 61028E   25044.17278883 -.00000001  00000-0  87490-3 0  9990
2  2009  95.8427 127.1657 0122493  17.5841 342.9201  8.68991049888036
Epoch: 2025-02-13T04:08Z
Definitive object data (Epoch: 2025-02-13T04:08:48.954Z)
Latitude-0.00011°
Longitude-78.49098°
Altitude3,500.792 km
Speed6.39 km/s
True Right ascension08h 28m 39s
True Declination0° 00' 00"
Sunlit
Object was in full shadow at TLE epoch
Visualization TLE readout
Latitude-49.55083°
Longitude94.75472°
Altitude3,737.082 km
Speed6.246 km/s
Apparent Right ascension21h 19m 46s
Apparent Declination-81° 13' 15"
Sunlit
Object is in daylight
Visualization observer readout
Local Sidereal Time19:33:12
Azimuth175.372° S
Elevation-31.973°
Doppler factor1
Orbital elements
Apogee altitude3,735.793 km
Perigee altitude3,491.014 km
Semi-major axis9,991.54 km
Eccentricity0.0122493
Inclination95.8427°
RAAN127.1657°
Arg. of periapsis17.5841°
True anomaly342.50172°
Mean anomaly342.9201°
Eccentric anomaly342.71153°
Mean motion2.17317 °/min
BSTAR0.0008749
Orbital period165.66 mins
Loading maneuver chart data...
Loading historical data...
Loading historical data...
Loading historical data...
Loading historical data...
Loading historical data...
Loading historical data...
Loading historical data...

MIDAS 4 DEB Visibility forecast

Observer location: undefined°, undefined

Span
Click to sort rows by Start time (UTC) header in descending order
Start Az.
Max El. time (UTC)
Max El. Az.
Max El.
End time (UTC)
End Az.
35 mins2025-02-13 18:42:45.420Z5.539° NNE2025-02-13 18:59:45.420Z294.238° NW42.5°2025-02-13 19:17:45.420Z213.341° SW
18 mins2025-02-13 21:28:45.420Z352.092° N2025-02-13 21:37:45.420Z319.981° NNW17.246°2025-02-13 21:46:45.420Z288.637° WNW
22 mins2025-02-14 02:29:45.420Z85.412° E2025-02-14 02:39:45.420Z46.901° ENE21.755°2025-02-14 02:51:45.420Z2.674° NNE
34 mins2025-02-14 05:02:45.420Z159.995° S2025-02-14 05:18:45.420Z84.936° E44.765°2025-02-14 05:36:45.420Z352.095° N
25 mins2025-02-14 07:52:45.420Z236.122° WSW2025-02-14 08:04:45.420Z283.984° WNW23.147°2025-02-14 08:17:45.420Z333.659° NNW
7 mins2025-02-14 16:50:45.420Z14.625° NNE2025-02-14 16:57:45.420Z27.919° NE28.268°2025-02-14 16:57:45.420Z27.919° NE
|